| time (UTC) | temp F | wind direction | speed MPH | gust MPH | rain 1hr in | rain 24hr in | rain mn in | humidity % | barometer mb |
| 20260902064515 | 63 | 104 | 0.0 | 1.0 | 0.00 | 0.00 | 0.00 | 69 | 1021.9 |
| 20260902063015 | 60 | 113 | 0.0 | 1.0 | 0.00 | 0.00 | 0.00 | 76 | 1022.0 |
| 20260902061531 | 56 | 137 | 0.0 | 0.0 | 0.00 | 0.00 | 0.00 | 82 | 1021.9 |
| 20260902060050 | 54 | 139 | 0.0 | 0.0 | 0.00 | 0.00 | 0.00 | 82 | 1021.8 |
| 20260902054558 | 52 | 274 | 0.0 | 0.0 | 0.00 | 0.00 | 0.00 | 84 | 1021.8 |
| 20260902053009 | 51 | 274 | 0.0 | 1.0 | 0.00 | 0.00 | 0.00 | 87 | 1021.7 |
| 20260902051521 | 49 | 275 | 0.0 | 1.0 | 0.00 | 0.00 | 0.00 | 90 | 1021.6 |
| 20260902050027 | 48 | 275 | 0.0 | 0.0 | 0.00 | 0.00 | 0.00 | 90 | 1021.7 |
| 20260902044554 | 48 | 275 | 0.0 | 0.0 | 0.00 | 0.00 | 0.00 | 90 | 1021.7 |
| 20260902043053 | 48 | 275 | 0.0 | 0.0 | 0.00 | 0.00 | 0.00 | 90 | 1021.7 |
| 20260902041505 | 49 | 275 | 0.0 | 0.0 | 0.00 | 0.00 | 0.00 | 90 | 1021.5 |
| 20260902040000 | 48 | 275 | 0.0 | 1.0 | 0.00 | 0.00 | 0.00 | 90 | 1021.6 |
| 20260902034520 | 48 | 275 | 0.0 | 0.0 | 0.00 | 0.00 | 0.00 | 90 | 1021.5 |
| 20260902033023 | 48 | 275 | 0.0 | 0.0 | 0.00 | 0.00 | 0.00 | 90 | 1021.5 |
| 20260902031546 | 48 | 275 | 0.0 | 0.0 | 0.00 | 0.00 | 0.00 | 89 | 1021.5 |
| 20260902030003 | 49 | 275 | 0.0 | 0.0 | 0.00 | 0.00 | 0.00 | 88 | 1021.7 |
| 20260902024520 | 49 | 275 | 0.0 | 1.0 | 0.00 | 0.00 | 0.00 | 88 | 1021.6 |
| 20260902023024 | 50 | 275 | 0.0 | 0.0 | 0.00 | 0.00 | 0.00 | 89 | 1021.5 |
| 20260902021548 | 49 | 275 | 0.0 | 0.0 | 0.00 | 0.00 | 0.00 | 89 | 1021.6 |
| 20260902020003 | 49 | 275 | 0.0 | 0.0 | 0.00 | 0.00 | 0.00 | 88 | 1021.6 |
| 20260902014521 | 49 | 275 | 0.0 | 0.0 | 0.00 | 0.00 | 0.00 | 88 | 1021.6 |
| 20260902013029 | 50 | 275 | 0.0 | 0.0 | 0.00 | 0.00 | 0.00 | 89 | 1021.7 |
| 20260902011544 | 50 | 275 | 0.0 | 0.0 | 0.00 | 0.00 | 0.00 | 89 | 1021.7 |
| 20260902010100 | 50 | 275 | 0.0 | 0.0 | 0.00 | 0.00 | 0.00 | 89 | 1021.7 |
| 20260902004604 | 49 | 275 | 0.0 | 0.0 | 0.00 | 0.00 | 0.00 | 88 | 1021.7 |
| 20260902003018 | 49 | 275 | 0.0 | 0.0 | 0.00 | 0.00 | 0.00 | 88 | 1021.5 |
| 20260902001530 | 50 | 275 | 0.0 | 0.0 | 0.00 | 0.00 | 0.00 | 88 | 1021.6 |
| 20260902000047 | 50 | 275 | 0.0 | 0.0 | 0.00 | 0.00 | 0.00 | 87 | 1021.6 |
| 20260901234611 | 50 | 275 | 0.0 | 0.0 | 0.00 | 0.00 | 0.00 | 86 | 1021.6 |
| 20260901233015 | 51 | 275 | 0.0 | 0.0 | 0.00 | 0.00 | 0.00 | 86 | 1021.6 |
| 20260901231521 | 51 | 275 | 0.0 | 0.0 | 0.00 | 0.00 | 0.00 | 86 | 1021.7 |
| 20260901230053 | 51 | 275 | 0.0 | 0.0 | 0.00 | 0.00 | 0.00 | 86 | 1021.7 |
| 20260901224554 | 51 | 275 | 0.0 | 0.0 | 0.00 | 0.00 | 0.00 | 86 | 1021.7 |
| 20260901223012 | 52 | 275 | 0.0 | 0.0 | 0.00 | 0.00 | 0.00 | 84 | 1021.7 |
| 20260901221516 | 52 | 275 | 0.0 | 0.0 | 0.00 | 0.00 | 0.00 | 83 | 1021.7 |
| 20260901220023 | 53 | 275 | 0.0 | 0.0 | 0.00 | 0.00 | 0.00 | 83 | 1021.8 |
| 20260901214533 | 53 | 275 | 0.0 | 0.0 | 0.00 | 0.00 | 0.00 | 81 | 1021.6 |
| 20260901213004 | 54 | 275 | 0.0 | 0.0 | 0.00 | 0.00 | 0.00 | 81 | 1021.5 |
| 20260901211535 | 54 | 275 | 0.0 | 0.0 | 0.00 | 0.00 | 0.00 | 80 | 1021.5 |
| 20260901210039 | 54 | 275 | 0.0 | 0.0 | 0.00 | 0.00 | 0.00 | 79 | 1021.5 |
| 20260901204558 | 55 | 275 | 0.0 | 0.0 | 0.00 | 0.00 | 0.00 | 78 | 1021.3 |
| 20260901203103 | 56 | 275 | 0.0 | 0.0 | 0.00 | 0.00 | 0.00 | 77 | 1021.2 |
| 20260901201534 | 56 | 275 | 0.0 | 0.0 | 0.00 | 0.00 | 0.00 | 76 | 1021.2 |
| 20260901200024 | 57 | 275 | 0.0 | 0.0 | 0.00 | 0.00 | 0.00 | 75 | 1021.2 |
| 20260901193109 | 58 | 275 | 0.0 | 0.0 | 0.00 | 0.00 | 0.00 | 72 | 1021.0 |
| 20260901191521 | 59 | 275 | 0.0 | 1.0 | 0.00 | 0.00 | 0.00 | 71 | 1020.9 |
| 20260901190031 | 60 | 275 | 0.0 | 0.0 | 0.00 | 0.00 | 0.00 | 69 | 1020.7 |
| 20260901184555 | 61 | 275 | 0.0 | 1.0 | 0.00 | 0.00 | 0.00 | 67 | 1020.6 |
| 20260901183058 | 62 | 276 | 0.0 | 1.0 | 0.00 | 0.00 | 0.00 | 64 | 1020.3 |
| 20260901181517 | 64 | 281 | 0.0 | 1.0 | 0.00 | 0.00 | 0.00 | 62 | 1020.3 |
| 20260901180020 | 66 | 281 | 0.0 | 1.0 | 0.00 | 0.00 | 0.00 | 58 | 1020.0 |
| 20260901174544 | 67 | 281 | 0.0 | 1.0 | 0.00 | 0.00 | 0.00 | 56 | 1019.9 |
| 20260901173100 | 68 | 281 | 0.0 | 1.0 | 0.00 | 0.00 | 0.00 | 53 | 1019.8 |
| 20260901171530 | 70 | 269 | 0.0 | 2.0 | 0.00 | 0.00 | 0.00 | 52 | 1019.9 |
| 20260901170100 | 72 | 288 | 0.0 | 2.0 | 0.00 | 0.00 | 0.00 | 49 | 1019.7 |
| 20260901164511 | 72 | 287 | 1.0 | 4.0 | 0.00 | 0.00 | 0.00 | 48 | 1019.7 |
| 20260901163025 | 73 | 331 | 2.0 | 6.0 | 0.00 | 0.00 | 0.00 | 47 | 1019.7 |
| 20260901161545 | 74 | 335 | 0.0 | 4.0 | 0.00 | 0.00 | 0.00 | 47 | 1019.7 |
| 20260901160006 | 74 | 289 | 2.0 | 8.0 | 0.00 | 0.00 | 0.00 | 46 | 1019.7 |
| 20260901154502 | 73 | 225 | 1.0 | 6.0 | 0.00 | 0.00 | 0.00 | 47 | 1019.8 |
| 20260901153037 | 73 | 255 | 1.0 | 8.0 | 0.00 | 0.00 | 0.00 | 46 | 1019.6 |
| 20260901151532 | 74 | 300 | 1.0 | 5.0 | 0.00 | 0.00 | 0.00 | 46 | 1019.7 |
| 20260901150003 | 75 | 10 | 2.0 | 9.0 | 0.00 | 0.00 | 0.00 | 45 | 1019.7 |
| 20260901144600 | 75 | 269 | 2.0 | 7.0 | 0.00 | 0.00 | 0.00 | 45 | 1019.6 |
| 20260901143032 | 76 | 133 | 2.0 | 7.0 | 0.00 | 0.00 | 0.00 | 43 | 1019.7 |
| 20260901141548 | 76 | 35 | 1.0 | 8.0 | 0.00 | 0.00 | 0.00 | 44 | 1019.7 |
| 20260901140004 | 75 | 340 | 3.0 | 8.0 | 0.00 | 0.00 | 0.00 | 44 | 1019.7 |
| 20260901134532 | 76 | 65 | 2.0 | 8.0 | 0.00 | 0.00 | 0.00 | 45 | 1019.8 |
| 20260901133034 | 76 | 286 | 2.0 | 8.0 | 0.00 | 0.00 | 0.00 | 46 | 1019.8 |
| 20260901131540 | 74 | 252 | 2.0 | 11.0 | 0.00 | 0.00 | 0.00 | 47 | 1019.9 |
| 20260901130109 | 73 | 309 | 4.0 | 13.0 | 0.00 | 0.00 | 0.00 | 47 | 1020.0 |
| 20260901124506 | 74 | 250 | 2.0 | 9.0 | 0.00 | 0.00 | 0.00 | 46 | 1020.0 |
| 20260901123030 | 75 | 92 | 1.0 | 8.0 | 0.00 | 0.00 | 0.00 | 47 | 1020.0 |
| 20260901121535 | 75 | 32 | 1.0 | 6.0 | 0.00 | 0.00 | 0.00 | 48 | 1020.1 |
| 20260901114627 | 75 | 248 | 2.0 | 11.0 | 0.00 | 0.00 | 0.00 | 46 | 1020.1 |
| 20260901113017 | 73 | 279 | 4.0 | 10.0 | 0.00 | 0.00 | 0.00 | 47 | 1020.2 |
| 20260901111505 | 73 | 251 | 3.0 | 9.0 | 0.00 | 0.00 | 0.00 | 50 | 1020.1 |
| 20260901111503 | 73 | 219 | 2.0 | 9.0 | 0.00 | 0.00 | 0.00 | 50 | 1020.1 |
| 20260901110013 | 73 | 281 | 3.0 | 10.0 | 0.00 | 0.00 | 0.00 | 49 | 1020.1 |
| 20260901104541 | 73 | 309 | 4.0 | 12.0 | 0.00 | 0.00 | 0.00 | 52 | 1020.1 |
| 20260901103104 | 71 | 245 | 4.0 | 15.0 | 0.00 | 0.00 | 0.00 | 53 | 1020.4 |
| 20260901101515 | 71 | 256 | 4.0 | 12.0 | 0.00 | 0.00 | 0.00 | 54 | 1020.1 |
| 20260901100010 | 71 | 214 | 2.0 | 12.0 | 0.00 | 0.00 | 0.00 | 56 | 1020.1 |
| 20260901094530 | 69 | 219 | 4.0 | 14.0 | 0.00 | 0.00 | 0.00 | 57 | 1020.3 |
| 20260901093016 | 70 | 270 | 3.0 | 12.0 | 0.00 | 0.00 | 0.00 | 57 | 1019.9 |
| 20260901091526 | 70 | 261 | 3.0 | 12.0 | 0.00 | 0.00 | 0.00 | 59 | 1020.0 |
| 20260901090034 | 69 | 285 | 4.0 | 15.0 | 0.00 | 0.00 | 0.00 | 60 | 1020.2 |
| 20260901084553 | 69 | 236 | 1.0 | 12.0 | 0.00 | 0.00 | 0.00 | 62 | 1020.2 |
| 20260901083054 | 69 | 285 | 2.0 | 8.0 | 0.00 | 0.00 | 0.00 | 63 | 1020.1 |
| 20260901081510 | 68 | 285 | 4.0 | 13.0 | 0.00 | 0.00 | 0.00 | 64 | 1020.0 |
| 20260901080014 | 67 | 264 | 4.0 | 10.0 | 0.00 | 0.00 | 0.00 | 65 | 1019.9 |
| 20260901074529 | 67 | 258 | 3.0 | 13.0 | 0.00 | 0.01 | 0.00 | 67 | 1019.6 |
| 20260901073042 | 66 | 276 | 4.0 | 11.0 | 0.00 | 0.01 | 0.00 | 69 | 1019.7 |
| 20260901071554 | 66 | 294 | 4.0 | 9.0 | 0.00 | 0.01 | 0.00 | 69 | 1019.7 |
| 20260901070006 | 66 | 295 | 2.0 | 9.0 | 0.00 | 0.01 | 0.00 | 70 | 1019.6 |